DIRECTV 14

Last updated on Thu Oct 30 2025 00:02:49 GMT+0000 (Coordinated Universal Time)

1 40333U 14078B 25302.40318920 -.00000116 00000+0 00000+0 0 9999 2 40333 0.0148 261.1754 0000345 188.8299 353.9380 1.00271207 39723
UTC large
Height (km)
Speed (km/s)
/
Latitude / Longitude
Inclination (degrees)
Orbital Period (minutes)
Azimuth
Elevation
Range (km)
Doppler Factor

Next 0 passes for location: London (51.5072 / 0.1276)

Sorry there are no passes over London.